Location: Ponte Samoggia
(44.5667°N, 11.1333°E)
Time: 23:48:34
(UTC+00:00)

NOSS 2-2 (D) - Pass Details

Date: 26 May 2022
Orbit: 437 x 1764 km, 63.3° (Epoch: 11 June)

Event Time Altitude Azimuth Distance (km) Brightness Sun altitude
Rises 00:00:19 0° 322° (NW) 3,025 7.7 -23.4°
Reaches altitude 10° 00:02:20 10° 322° (NW) 2,250 6.9 -23.4°
Maximum altitude 00:07:32 90° 257° (WSW) 933 4.3 -23.2°
Enters shadow 00:11:38 27° 144° (SE) 1,968 5.7 -23.0°
